カタログに戻る

STARLINK-38056

運用中通信SSO
NORAD 69760·PAYLOAD·🇺🇸 United States

打ち上げ Jul 2, 2026 から Vandenberg Space Force Base

Loading…

次のパス (今後24時間)

TLE

最新Source: CelesTrak SupGP

元期: Sep 14, 2026, 22:45 UTC

1 69760C 26150X   26257.94840278 -.00048240  00000+0 -14971-2 0  2576
2 69760  97.2844  96.9621 0001643  92.8967 335.5174 15.33472018    15

AllMySatでSTARLINK-38056をリアルタイム追跡

Download on the App Store